Total_Precipitation_Accumulation
0.00 0.00 0.00 0.00 0.00 0.00 0.00 0.00 0.00 0.00 0.00 0.00 0.00 0.00 0.00 0.00 0.00 0.00 0.00 0.00 0.00 0.00 0.00 0.00 0.00 0.00 0.00 0.00 0.00 0.00 0.00 0.00 0.06 0.05 0.06 0.05 0.03 0.03 0.02 0.23 0.28 0.20 0.48 0.71
0.00 0.00 0.00 0.00 0.00 0.00 0.00 0.00 0.00 0.00 0.00 0.00 0.00 0.00 0.00 0.00 0.00 0.00 0.00 0.00 0.00 0.00 0.00 0.00 0.00 0.00 0.00 0.00 0.00 0.00 0.00 0.00 0.00 0.00 0.01 0.03 0.02 0.02 0.01 0.03 0.11 0.21 0.42 0.43
0.00 0.00 0.00 0.00 0.00 0.00 0.00 0.00 0.00 0.00 0.00 0.00 0.00 0.00 0.00 0.00 0.00 0.00 0.00 0.00 0.00 0.00 0.00 0.00 0.00 0.00 0.00 0.00 0.00 0.00 0.00 0.00 0.00 0.00 0.00 0.01 0.03 0.03 0.04 0.04 0.07 0.15 0.35 0.41
0.00 0.00 0.00 0.00 0.00 0.00 0.00 0.00 0.00 0.00 0.01 0.01 0.00 0.00 0.00 0.00 0.00 0.00 0.00 0.00 0.00 0.00 0.00 0.00 0.00 0.00 0.00 0.00 0.00 0.00 0.00 0.00 0.00 0.00 0.00 0.00 0.01 0.03 0.03 0.02 0.04 0.09 0.18 0.38
0.01 0.00 0.00 0.00 0.00 0.00 0.00 0.00 0.00 0.00 0.00 0.00 0.00 0.00 0.00 0.00 0.00 0.00 0.00 0.00 0.00 0.00 0.00 0.00 0.00 0.00 0.00 0.00 0.00 0.00 0.00 0.00 0.00 0.00 0.00 0.01 0.01 0.01 0.02 0.05 0.05 0.11 0.10 0.16
0.00 0.00 0.00 0.00 0.00 0.00 0.00 0.00 0.00 0.00 0.00 0.00 0.00 0.00 0.00 0.00 0.00 0.00 0.00 0.00 0.00 0.00 0.00 0.00 0.00 0.00 0.00 0.00 0.00 0.00 0.00 0.00 0.01 0.01 0.00 0.01 0.01 0.02 0.02 0.03 0.07 0.18 0.34 0.20
0.00 0.00 0.00 0.00 0.00 0.00 0.00 0.00 0.02 0.04 0.01 0.00 0.00 0.00 0.00 0.00 0.00 0.00 0.00 0.00 0.00 0.00 0.00 0.00 0.00 0.00 0.00 0.00 0.00 0.00 0.00 0.01 0.01 0.01 0.01 0.03 0.06 0.04 0.06 0.07 0.07 0.13 0.52 0.61
0.00 0.00 0.00 0.00 0.00 0.00 0.00 0.03 0.11 0.15 0.04 0.03 0.01 0.01 0.00 0.00 0.00 0.00 0.00 0.00 0.00 0.00 0.00 0.00 0.00 0.00 0.00 0.00 0.00 0.00 0.01 0.01 0.01 0.02 0.06 0.05 0.03 0.05 0.05 0.08 0.07 0.11 0.20 0.53
0.00 0.00 0.00 0.00 0.00 0.02 0.06 0.05 0.06 0.16 0.10 0.09 0.02 0.00 0.01 0.00 0.00 0.00 0.00 0.00 0.01 0.01 0.01 0.01 0.00 0.00 0.00 0.00 0.00 0.00 0.01 0.01 0.04 0.07 0.04 0.04 0.08 0.04 0.04 0.06 0.09 0.14 0.24 0.42
0.00 0.00 0.00 0.00 0.01 0.04 0.03 0.02 0.09 0.25 0.36 0.18 0.08 0.04 0.04 0.01 0.05 0.10 0.10 0.07 0.06 0.06 0.03 0.01 0.00 0.00 0.00 0.00 0.00 0.00 0.02 0.05 0.07 0.04 0.03 0.05 0.07 0.04 0.04 0.05 0.08 0.11 0.17 0.32
0.00 0.01 0.00 0.00 0.05 0.11 0.14 0.14 0.15 0.17 0.15 0.17 0.08 0.09 0.11 0.11 0.11 0.22 0.27 0.16 0.09 0.05 0.03 0.02 0.00 0.00 0.00 0.01 0.03 0.05 0.07 0.05 0.06 0.04 0.04 0.07 0.16 0.13 0.06 0.07 0.08 0.10 0.14 0.23
0.00 0.02 0.01 0.00 0.00 0.04 0.11 0.29 0.55 0.79 0.52 0.25 0.14 0.06 0.06 0.08 0.13 0.17 0.62 0.49 0.29 0.08 0.04 0.06 0.04 0.02 0.03 0.04 0.07 0.07 0.06 0.05 0.04 0.02 0.06 0.11 0.14 0.08 0.05 0.05 0.09 0.11 0.13 0.16
0.07 0.11 0.13 0.03 0.09 0.14 0.12 0.08 0.17 0.36 0.44 0.33 0.39 0.15 0.05 0.12 0.27 0.20 0.34 0.40 0.28 0.16 0.05 0.02 0.03 0.05 0.11 0.14 0.13 0.07 0.05 0.04 0.04 0.05 0.09 0.09 0.08 0.04 0.06 0.04 0.07 0.10 0.16 0.19
0.10 0.04 0.07 0.07 0.10 0.15 0.08 0.03 0.01 0.04 0.07 0.08 0.18 0.15 0.27 0.26 0.31 0.42 0.25 0.15 0.12 0.14 0.11 0.05 0.05 0.06 0.08 0.13 0.23 0.24 0.21 0.16 0.13 0.11 0.12 0.09 0.08 0.07 0.08 0.06 0.06 0.10 0.16 0.19
0.12 0.11 0.04 0.01 0.00 0.01 0.01 0.00 0.00 0.01 0.01 0.01 0.01 0.16 0.27 0.30 0.33 0.41 0.12 0.14 0.11 0.26 0.31 0.17 0.10 0.10 0.07 0.10 0.18 0.33 0.24 0.20 0.16 0.16 0.11 0.08 0.06 0.07 0.11 0.10 0.08 0.07 0.16 0.20
0.11 0.23 0.14 0.07 0.00 0.00 0.00 0.00 0.00 0.01 0.01 0.00 0.00 0.01 0.00 0.02 0.06 0.06 0.05 0.05 0.16 0.32 0.24 0.22 0.16 0.11 0.09 0.07 0.13 0.27 0.30 0.23 0.17 0.16 0.11 0.08 0.10 0.10 0.12 0.11 0.10 0.07 0.12 0.17
0.16 0.12 0.11 0.06 0.00 0.00 0.01 0.01 0.02 0.08 0.03 0.01 0.02 0.03 0.01 0.03 0.04 0.08 0.10 0.08 0.10 0.11 0.06 0.12 0.19 0.12 0.10 0.10 0.08 0.16 0.27 0.28 0.19 0.16 0.13 0.09 0.09 0.11 0.11 0.11 0.12 0.12 0.12 0.11
0.14 0.11 0.10 0.07 0.06 0.07 0.09 0.04 0.03 0.11 0.05 0.03 0.04 0.03 0.03 0.03 0.07 0.06 0.05 0.04 0.05 0.04 0.03 0.04 0.09 0.05 0.10 0.17 0.29 0.28 0.27 0.30 0.34 0.22 0.14 0.09 0.08 0.08 0.12 0.17 0.17 0.17 0.15 0.11
0.02 0.06 0.10 0.06 0.04 0.04 0.05 0.07 0.09 0.12 0.11 0.09 0.09 0.04 0.02 0.02 0.07 0.08 0.08 0.04 0.03 0.01 0.00 0.01 0.01 0.01 0.02 0.09 0.28 0.50 0.58 0.36 0.36 0.30 0.25 0.15 0.10 0.09 0.15 0.23 0.27 0.21 0.18 0.22
0.08 0.11 0.32 0.13 0.17 0.12 0.16 0.13 0.04 0.10 0.30 0.52 0.24 0.14 0.11 0.06 0.08 0.19 0.07 0.02 0.01 0.00 0.00 0.00 0.00 0.00 0.00 0.02 0.14 0.33 0.67 0.74 0.46 0.41 0.31 0.31 0.23 0.17 0.20 0.22 0.17 0.17 0.22 0.17
0.29 0.47 0.57 0.33 0.57 0.39 0.16 0.03 0.02 0.22 0.72 0.68 0.58 0.72 0.63 0.61 0.64 0.35 0.17 0.10 0.03 0.00 0.00 0.00 0.00 0.00 0.00 0.00 0.09 0.37 0.60 0.98 0.88 0.53 0.46 0.35 0.29 0.30 0.25 0.19 0.17 0.19 0.21 0.26
0.67 0.60 0.48 0.53 0.49 0.52 0.16 0.17 0.40 0.47 0.33 0.50 1.04 1.29 1.08 0.88 0.54 0.25 0.09 0.03 0.01 0.00 0.00 0.00 0.00 0.00 0.00 0.01 0.01 0.09 0.37 0.99 1.38 1.10 0.66 0.58 0.47 0.30 0.25 0.21 0.18 0.22 0.27 0.29
0.64 0.98 0.90 0.52 0.48 0.41 0.26 0.35 0.44 0.47 0.50 0.60 0.55 0.63 0.36 0.14 0.01 0.00 0.00 0.00 0.00 0.00 0.00 0.00 0.00 0.00 0.00 0.01 0.02 0.03 0.09 0.27 1.06 1.67 1.60 1.18 0.76 0.65 0.61 0.58 0.51 0.40 0.35 0.33
0.35 0.60 1.01 0.68 0.53 0.25 0.37 0.25 0.34 0.58 0.57 0.25 0.19 0.10 0.03 0.01 0.00 0.00 0.00 0.00 0.00 0.00 0.00 0.00 0.00 0.00 0.00 0.00 0.01 0.03 0.04 0.10 0.36 0.84 1.42 1.79 1.79 1.05 0.90 1.03 1.03 1.15 1.09 0.83
0.57 0.41 0.38 0.74 0.78 0.56 0.39 0.42 0.37 0.30 0.24 0.29 0.11 0.01 0.00 0.00 0.00 0.00 0.00 0.00 0.00 0.00 0.00 0.00 0.00 0.00 0.00 0.01 0.01 0.03 0.06 0.09 0.17 0.49 0.91 1.20 1.86 1.81 0.97 0.81 0.96 0.86 0.99 1.07
0.22 0.21 0.49 0.71 0.92 1.13 0.85 0.93 0.55 0.32 0.13 0.12 0.03 0.01 0.00 0.00 0.00 0.00 0.00 0.00 0.01 0.01 0.00 0.01 0.01 0.02 0.03 0.04 0.05 0.05 0.06 0.11 0.16 0.37 0.75 1.00 1.31 1.87 1.84 1.18 1.21 1.48 1.56 1.50